Regional Weather Roundup
Issued by NWS Wakefield, VA

Home | Current Version | Previous Version | Graphics & Text | Print | Product List | Glossary On
Versions: 1 2 3 4 5 6 7 8 9 10 11 12 13 14 15 16 17 18 19 20 21 22 23 24 25 26 27 28 29 30 31 32 33 34 35 36 37 38 39 40 41 42 43 44 45 46 47 48 49 50
000
ASUS41 KAKQ 252014
RWRAKQ

REGIONAL WEATHER ROUNDUP
NATIONAL WEATHER SERVICE WAKEFIELD VA
300 PM EST SAT FEB 25 2017

Note: "fair" indicates few or no clouds below 12,000 feet with no
significant weather and/or obstructions to visibility. * = Denotes
station may not report precipitation (e.g., rain,snow,etc.),
thunder or fog.

VAZ042-051-052>054-056-252100-
NORTHERN VIRGINIA

CITY           SKY/WX    TMP DP  RH WIND       PRES   REMARKS
WASH NATIONAL  PTSUNNY   69  60  73 SW13      29.44R THUNDER
DULLES         TSTM      54  48  80 NW20G41   29.50R
FORT BELVOIR   TSTM      68  59  73 SW6       29.47R
QUANTICO       CLOUDY    60  58  92 NW7       29.49R THUNDER
FREDERICKSBRG* LGT RAIN  66  56  70 W18G38    29.46R
STAFFORD*      CLOUDY    58  58 100 W10G24    29.52R
WARRENTON      CLOUDY    64  56  75 W12G23    29.48R
CULPEPER*      CLOUDY    65  58  78 W8        29.50R
MANASSAS*      TSTM      64  59  83 SW16G26   29.48R
LEESBURG*      CLOUDY    54  50  87 MISG      29.52R
WINCHESTER     RAIN      52  43  71 W9G17     29.56R
FRONT ROYAL*   CLOUDY    55  45  67 SW5       29.55R
LURAY*         CLOUDY    61  45  55 W9G18     29.56R
$$

VAZ048-049-060>072-079>083-252100-
CENTRAL AND SOUTH CENTRAL VIRGINIA

CITY           SKY/WX    TMP DP  RH WIND       PRES   REMARKS
RICHMOND       PTSUNNY   75  56  51 S21G36    29.46F
CHESTERFIELD*  FAIR      75  46  35 S16G28    29.48F
PETERSBURG*    PTSUNNY   78  53  41 S10G22    29.49F
HANOVER        CLOUDY    75  53  46 S15G31    29.47F
TAPPAHANNOCK*  CLOUDY    76  49  38 S17G23    29.48F
QUINTON*       FAIR      78  57  48 S10G23    29.47F
CHARLOTTSVILLE CLOUDY    64  43  46 W12G23    29.53S
GORDONSVILLE*  NOT AVBL
ORANGE*        CLOUDY    61  52  72 SW18G25   29.52S
LOUISA*        PTSUNNY   72  55  56 W18G24    29.49R
BUMPASS*       NOT AVBL
FARMVILLE*     CLOUDY    68  55  64 W12G17    29.51R
CREWE*         CLOUDY    60  60 100 S6G37     29.50F VSB 1/2
FORT PICKETT*  CLOUDY    75  46  34 S26G41    29.48F
CHASE CITY*    NOT AVBL
CLARKSVILLE*   FAIR      79  52  38 SW21G30   29.49F
SOUTH HILL*    MOSUNNY   78  58  50 S26       29.56F
LAWRENCEVILLE* NOT AVBL
EMPORIA*       PTSUNNY   77  54  44 S14G25    29.54F
$$

VAZ088>098-252100-
SOUTHEAST VIRGINIA

CITY           SKY/WX    TMP DP  RH WIND       PRES   REMARKS
NORFOLK        MOSUNNY   79  55  43 S17G29    29.54F
VIRGINIA BEACH MOSUNNY   77  55  46 S17G29    29.55F
NORFOLK NAVAL  PTSUNNY   79  55  43 S16G25    29.55F
WEST POINT*    MOSUNNY   78  54  43 S15G21    29.51F
SALUDA*        MOCLDY    76  59  55 S13G22    29.51F
NEWPORT NEWS   PTSUNNY   77  56  48 S21G28    29.53F
LANGLEY AFB    SUNNY     78  58  50 SW13G22   29.53F
FORT EUSTIS    MOSUNNY   76  57  51 S8G21     29.50F
WILLIAMSBURG*  SUNNY     81  57  44 S9G23     29.52F
HR EXEC AP*    FAIR      79  57  47 S16G25    29.53F
FRANKLIN*      MOSUNNY   78  56  45 SW20G29   29.54F
US460-WAKEFLD  MOSUNNY   77  57  50 S13G24    29.52F
$$

VAZ020-022-025-037-045-252100-
WEST CENTRAL AND SOUTHWEST VIRGINIA

CITY           SKY/WX    TMP DP  RH WIND       PRES   REMARKS
STAUNTON*      PTSUNNY   58  37  46 W16G24    29.62R
WAYNESBORO*    MOCLDY    58  38  48 W17G25    29.61R
HOT SPRINGS VA CLOUDY    41  36  81 W18G37    29.65R
LYNCHBURG      PTSUNNY   61  37  41 W15G23    29.60R
DANVILLE       CLOUDY    69  55  60 W12       29.55F
SOUTH BOSTON*  NOT AVBL
MARTINSVILLE   MOSUNNY   66  39  36 W7        29.63S
ROANOKE        MOSUNNY   63  37  38 W21G37    29.64F
BLACKSBURG     SUNNY     58  35  41 W18G29    29.69F
DUBLIN*        PTSUNNY   54  38  54 W20G25    29.71R
MARION*        MOSUNNY   54  32  43 SW24G35   29.73F
HILLSVILLE*    SUNNY     53  36  52 W24G35    29.67S
RICHLANDS*     FAIR      50  31  49 W9G26     29.75R
WISE*          MOSUNNY   46  28  49 NW13G22   29.81R
ABINGDON*      PTSUNNY   54  31  41 NW15G31   29.77R
$$

MDZ021>025-VAZ099-100-252100-
SOUTHERN MARYLAND AND THE DELMARVA PENINSULA

CITY           SKY/WX    TMP DP  RH WIND       PRES   REMARKS
PATUXENT RIVER PTSUNNY   70  58  65 SE14      29.46F
BAY BRIDGE APT MOSUNNY   68  57  68 SE17G23   29.43F
LEONARDTOWN    MOSUNNY   73  55  53 S12G17    29.47F
DOVER          MOSUNNY   68  59  73 E13       29.48F
GEORGETOWN     MOSUNNY   75  56  51 S17G24    29.51F
EASTON         SUNNY     73  57  56 S18       29.51F
CAMBRIDGE      MOSUNNY   72  57  60 S17G25    29.49F
SALISBURY      MOSUNNY   73  58  59 SE15G23   29.51F
OCEAN CITY     MOSUNNY   57  52  83 VRB7      29.58F
WALLOPS ISLAND MOSUNNY   62  57  83 S18G26    29.57F
ACCOMACK*      MOSUNNY   70  60  70 S18G24    29.54F
$$

NCZ012>017-030>032-252100-
NORTH CENTRAL AND EASTERN NORTH CAROLINA

CITY           SKY/WX    TMP DP  RH WIND       PRES   REMARKS
ROANOKE RAPIDS FAIR      79  57  47 S16G25    29.55F
RALEIGH        PTSUNNY   80  52  37 SW20G33   29.57F
ELIZABETH CITY SUNNY     78  57  48 S14G24    29.60F
AHOSKIE*         N/A     78  57  48 S9G20     29.57F
EDENTON*       MOSUNNY   77  57  49 SW13      29.61F
CURRITUCK*     SUNNY     76  56  51 S7        29.61F
KILL DEVIL HLS NOT AVBL
MANTEO         SUNNY     67  60  78 S18G25    29.64S
CAPE HATTERAS  SUNNY     73  62  68 SW12G21   29.68F HAZE
TARBORO*       NOT AVBL
GOLDSBORO      MOSUNNY   79  56  45 SW17G25   29.58F
WASHINGTON     MOSUNNY   79  56  45 S16G22    29.61F
GREENVILLE     MOSUNNY   81  55  41 SW20      29.63F
NEW BERN       SUNNY     77  60  55 S17G24    29.64F
WILMINGTON     SUNNY     77  62  59 S17G23    29.66F
$$

VAZ048-252100-
ELSEWHERE

CITY           SKY/WX    TMP DP  RH WIND       PRES   REMARKS
HARRISBURG PA  TSTM      54  50  86 NW30G40   29.45R SQUALL
BALTIMORE      LGT RAIN  66  59  78 SE14G20   29.41F
ANNAPOLIS      MOSUNNY   66  57  72 S12G24    29.43F
ANDREWS AFB    TSTM      68  59  73 S18G29    29.42F
PHILADELPHIA   MOSUNNY   72  55  55 S18G24    29.47F
HENDERSON NC   MOSUNNY   77  49  37 SW21G32   29.53F
GREENSBORO     PTSUNNY   69  57  65 W17G25    29.58S
ROCKY MOUNT    PTSUNNY   80  57  45 S21G29    29.57F
$$

VAZ100-252100-
MARINE

STATION/POSITION TIME  TEMP    WIND        PRES    WAVE   SWELL
                       AIR SEA DIR/SP/G            HT/PER HT/PER
                 (UTC) (F)     (DEG/KT/KT) (MB)    (FT/S) (FT/S)
CAPE MAY NJ      1948   55 46  150/ 16/ 22 1000.0F
LEWES DE         1942   62 44  140/ 10/ 14 1000.1F
OCEAN-CITY-INLET 1942   50 47  210/  7/  9 1002.2F
WACHAPREAGUE VA  1942   61 60  190/ 11/ 14 1001.5F
THOMAS POINT MD  2000   59 45  160/ 24/ 26   N/A
GOOSES REEF MD   2000   51 44  150/ 19/ 23  997.8    2/ 3
COVE POINT MD    1942   51     190/ 16/ 18  999.2F
SOLOMONS ISLAND  1942   67 47  180/ 14/ 18   N/A
BISHOPS HEAD MD  1948   54 53  150/ 14/ 16  999.5F
PINEY POINT MD   1948          160/ 15/ 18   N/A
POTOMAC MD       2000   55 46  170/ 14/ 17  997.9    2/ 3
CAMBRIDGE MD     1948   71 46  170/ 13/ 21  997.9F
LEWISETTA VA     1942   72 52  200/ 20/ 23  997.9F
RAPPAHANNOCK LGT 1948          140/ 18/ 19 1000.6F
YORK RVR RNG VA  1942   63     180/ 10/ 14  999.4F
YORKTOWN VA      1942   75 50  190/ 14/ 20  999.4F
JAMESTOWN VA     2000   74 55  190/ 17/ 23   N/A     1
DOMINION TERM VA 1942   69     200/ 15/ 18 1000.4F
KIPTOPEKE VA     1942      52  170/ 18/ 21   N/A
CHES BAY BRIDGE  1948   71 50  200/ 13/ 17 1000.4F
CAPE HENRY VA    1948   64     140/ 13/ 18   N/A
WILLOUBY STN VA  1942   75     200/ 18/ 19 1001.3F
S CRANEY ISL VA  1942   74     210/ 13/ 18 1000.6F
CAPE HENRY BUOY  1942      51                N/A     5/10   2/11
OFFSHORE WE BUOY 1951      53                N/A     5/11   2/11
64NM E OF VA BCH 1950   59 56  170/ 12/ 14 1003.0F   7/11   7/11
DUCK PIER NC     1948   71 50  180/ 16/ 19 1002.3F
44100 DUCK FRF   1905      53                N/A     5/11   3/11
44056 DUCK FRF   1930      52                N/A     4/11   2/11
OREGON INLET NC  1942   65 56  180/ 14/ 16 1004.0F
HATTERAS NC      1948   70 63  210/ 11/ 14 1004.8F
DIAMOND SHLS NC  1950   72 76  220/ 17/ 21 1005.0F   6/10   7/10
CAPE LOOKOUT NC  2000   70     200/ 16/ 20 1005.1F
$$



USA.gov is the U.S. government's official web portal to all federal, state and local government web resources and services.